Regional Weather Roundup
Issued by NWS

Home | Current Version | Previous Version | Graphics & Text | Print | Product List | Glossary On
Versions: 1 2 3 4 5 6 7 8 9 10 11 12 13 14 15 16 17 18 19 20 21 22 23 24 25 26 27 28 29 30 31 32 33 34 35 36 37 38 39 40 41 42 43 44 45 46 47 48 49 50
000
ASUS43 KFSD 251510
RWRSD

WEATHER ROUNDUP FOR SOUTH DAKOTA
NATIONAL WEATHER SERVICE SIOUX FALLS SD
900 AM CST THU DEC 25 2014

NOTE: "FAIR" INDICATES FEW OR NO CLOUDS BELOW 12,000 FEET WITH NO
SIGNIFICANT WEATHER AND/OR OBSTRUCTIONS TO VISIBILITY.


SDZ001>005-009-010-012>017-251600-
NORTHWEST AND NORTH CENTRAL SOUTH DAKOTA

CITY           SKY/WX    TMP DP  RH WIND       PRES   REMARKS
BUFFALO          N/A     26  22  84 N16       29.63R WCI  14
FAITH            N/A     29  26  89 N12       29.67R WCI  19
MOBRIDGE       CLOUDY    30  25  81 N6        29.65R WCI  24
$$

SDZ012>016-024>037-041>051-057-063-072>074-251600-
SOUTHWEST AND SOUTH CENTRAL SOUTH DAKOTA

CITY           SKY/WX    TMP DP  RH WIND       PRES   REMARKS
RAPID CTY ARPT SNOW      30  28  92 N17       29.65R VSB 1/2 WCI  18
PIERRE         LGT SNOW  31  29  92 NE15      29.65R VSB 1   WCI  20
CUSTER         CLOUDY    24  20  84 N13G21    29.54R WCI  12
ELLSWORTH AFB  LGT SNOW  30  28  93 N13       29.66R VSB 1   WCI  20
PHILIP         LGT SNOW  32  29  88 N9        29.66R VSB 1   WCI  24
PINE RIDGE     CLOUDY    30  27  88 N8        29.58R FOG     WCI  22
SPEARFISH      LGT SNOW  27  27 100 NE3       29.68R VSB 3/4
WINNER         CLOUDY    30  26  85 N15       29.58R WCI  19
$$

SDZ004>011-016>023-039-040-251600-
NORTHEAST SOUTH DAKOTA

CITY           SKY/WX    TMP DP  RH WIND       PRES   REMARKS
ABERDEEN       CLOUDY    31  25  78 N13       29.67R WCI  21
WATERTOWN      LGT SNOW  29  27  92 N9        29.63R FOG     WCI  20
SISSETON         N/A     30  25  81 N13       29.66R WCI  20
$$

SDZ017-020-022-023-036>040-048>070-251600-
SOUTHEAST SOUTH DAKOTA

CITY           SKY/WX    TMP DP  RH WIND       PRES   REMARKS
SIOUX FALLS    MOCLDY    30  27  88 NE5       29.63R WCI  25
HURON          LGT SNOW  28  26  92 NE9       29.63R VSB 1   WCI  19
CHAMBERLAIN    CLOUDY    31  29  92 NE9       29.60R WCI  23
MITCHELL       CLOUDY    30  26  85 NE5       29.63R WCI  25
YANKTON        MOCLDY    27  23  86 NE6       29.61R WCI  20
$$

ABBREVIATIONS USED IN REMARKS
   TC - TEMPERATURE IN CELSIUS
  WCI - WIND CHILL INDEX
   HX - HEAT INDEX
  VSB - VISIBILITY



USA.gov is the U.S. government's official web portal to all federal, state and local government web resources and services.